Location: Milano
(45.4642°N, 9.1900°E)
Time: 11:10:11
(UTC+02:00)

ISS - Visible Passes

Search period start: 16 June 2024 00:00
Search period end: 26 June 2024 00:00
Orbit: 411 x 425 km, 51.6° (Epoch: 15 June)

Date Brightness Start Highest point End Pass type
(mag) Time Alt. Az. Time Alt. Az. Time Alt. Az.
22 Jun -1.4 04:40:14 10° S 04:42:20 16° SE 04:44:27 10° E visible
24 Jun -3.0 04:43:11 10° SW 04:46:18 41° SE 04:49:31 10° ENE visible
25 Jun -2.4 03:58:53 19° S 04:00:25 27° SE 04:03:19 10° E visible
